Member area
Imprimable
Challenges > Delhalle - Chimay, 21/04/2018, BEL - Jogging de la Principauté
List of reports > Delhalle - 14.3km - Result
Search: Page: [1]
131 Entries
 
Complains are not accepted anymore. Results are final.
PlaceNrNameAgeNATLeagueTeamRealTimeTkmMoy.ScrPtsCity
1.2322DIAZ RODRIGUEZ ALEXANDER39BELBEHO50:0750:053:31 17.1411144BRUGGE
2.168NAVET NICOLAS29BELDAMPJOGGING LUX51:2951:263:36 16.6821121ETHE
3.5400BROGNIET PIERRE25BELCABW51:5351:513:38 16.5531114BEAUMONT
4.840RAEMACKERS CÉDRIC33BELFCHAJOGGPLUS53:3353:313:45 16.0441086WANZE
5.704CHATELAIN JULIEN33BEL56:0055:583:55 15.3391045FRAITURE
6.13CAMBRAI JEROME28BEL56:0756:053:56 15.30101042NEUFCHATEAU
7.338HEUNINCK ALEXANDRE29BEL56:3756:343:58 15.17111034SCHAERBEEK
8.300CLAUSSE CHRISTOPHE36BELUN ORVAL D'AVANCE!57:2157:184:01 14.97121023RUETTE
9.1062WEYNANTS BIRGER37BEL57:2657:224:01 14.96131021HOLSBEEK
10.913BOUGHRAD MOHAMED38BELCSFKALENJI TEAM58:3258:294:06 14.67161003BRUXELLES
11.1056DRYGALSKI TOM22BELESMTRAKK'S59:1259:094:09 14.5117993LOBBES
12.1205CRUSIAUX STÉPHANE39FRAESA59 CAF59:2059:174:09 14.4718990FOURMIES
13.363MARCHAL GILLES29BELGAGTEAM RUNATTITUDE1:00:051:00:034:12 14.2920978GEMBLOUX
14.5438DARDENNE NICOLAS35BELJACO1:00:551:00:504:16 14.1022966LES BONS VILLERS
15.2303BERTEAUX MICKAEL33BEL1:01:371:01:344:19 13.9427953
16.2339BRASSEUR LUDOVIC35BELWSAWSA1:02:141:02:094:21 13.8132941
17.5425LUST THIBAUT38BELJACO1:02:271:02:224:22 13.7633938BOULOGNE-BILLANCOURT
18.5456NAVEAU MAXIME34BELJACO1:02:561:02:514:24 13.6535930CHIMAY
19.173ROB VINCENT34BELFLEUXYD-FLEU1:03:271:03:164:26 13.5638921WANFERCÉE-BAULET
20.5399VAN GHELUWE RÉMI38FRAJACOJACO1:03:391:03:344:27 13.5040918LA NEUVILLE AUX JOUTES
21.2460SOBRY MATHIEU34BELJACOJACO1:04:371:04:324:31 13.3045902CHIMAY
22.2263DETHIERE ARNAUD28BELCSCVH H1:05:171:05:104:34 13.1748891
23.2242VAN NIEUWENHOVE TANGUY24BEL1:05:211:05:154:34 13.1549890
24.2219COLLERY BENOIT39BEL1:06:071:06:004:37 13.0051879
25.2357SNYERS CHARLES26BELRFCL1:06:291:06:184:39 12.9452874LIÈGE
26.1044BOREUX DAMIEN22BEL1:07:331:07:274:43 12.7254859CHIMAY
27.242LEFÈVRE AURÉLIEN26BELTRIGT1:08:171:08:144:47 12.5860846HINGEON
28.5404FALISE BENJAMIN33BEL1:08:281:08:224:47 12.5564841FORGES
29.2367NAVEAU SÉBASTIEN35BEL1:08:381:08:264:48 12.5467838SAINT DENIS
30.1222WILMART SÉBASTIEN33BEL1:08:361:08:304:48 12.5369837MONCEAU-IMBRECHIES
31.1168LOCUTY JOHANN36FRATRIATHLON FOURMIES1:09:111:09:044:50 12.4271828FOURMIES
32.1167STOUFFS ADRIEN26BELJC RONVAU1:09:251:09:224:51 12.3776822OTTIGNIES
33.762ASTRUC VICTOR25BELENJAMBEE1:09:331:09:224:52 12.3777820WOLUWE-SAINT-LAMBERT
34.2276MERSCH JULIEN35BEL1:09:371:09:304:52 12.3578819
35.1042MAUDOUX LIONEL35BELJACOJACO1:09:471:09:414:53 12.3181815BOURLERS
36.2230DUCARME NICOLAS34BELPOMPETT1:10:481:10:334:56 12.1687799
37.2311JENNEQUIN MAXIME28BELFC BOUS1:10:421:10:334:56 12.1688800
38.220KEISER NICOLAS20BEL1:10:371:10:344:57 12.1689800HAM-SUR-HEURE
39.2286FALISE VALENTIN29BEL1:11:001:10:504:58 12.1190795
40.2470CHARLIER PIERRE31BEL1:11:271:11:114:59 12.0593788IXELLES
41.1008DEHAYE FRANÇOIS38BELJACO1:11:401:11:295:00 12.0097783VAULX-LEZ-CHIMAY
42.2291BRY OLIVIER28BELCRAZY B1:11:591:11:535:02 11.94100777
43.1096SEINGIER NICOLAS21BELJACO1:13:011:12:575:07 11.76104763SENZEILLES
44.5454ERNEST NICOLAS24BEL1:13:561:13:345:09 11.66113747VIRELLES
45.250MAQUET DENIS32BEL1:13:491:13:355:09 11.66114748NIVELLES
46.2241BOSQUET JOSE37BELJTRR1:13:421:13:395:09 11.65115749
47.335LECLEF JULIEN37BELCPMV61:14:131:14:005:11 11.59118741HAM-SUR-HEURE-NALINNES
48.696LECLEF SEBASTIEN38BELCSFMYSTERE1:14:131:14:045:11 11.59120740FOREST
49.2237CORDEWENER BENOIT30BELAC FRON1:14:251:14:085:12 11.57123736
50.2295POUCET FABRICE39BELACCO1:14:521:14:485:14 11.47129727
51.2405DEMERRE FRANÇOIS31BEL1:15:161:14:525:15 11.46130722WOLUWE-SAINT-PIERRE
52.2326MOULIN REMY26BELHAVIGNO1:15:151:14:545:15 11.46131722
53.2217SANCHEZ BUENO ELIAS38BEL1:15:381:15:255:17 11.38137714
54.5396CUVELIER GILLES26BEL1:15:481:15:265:17 11.38139711IRCHONWELZ
55.70LECLERCQ CÉDRIC39BEL1:15:521:15:385:18 11.34144707LIERNU
56.2319LEURQUIN STANY33BELJC BRAC1:16:181:16:105:20 11.27148700
57.2298SELVAIS FRANCOIS27BELTEAM SA1:16:251:16:185:21 11.25152696
58.2264RAIMOND SACHA25BEL1:16:481:16:195:21 11.24153691
59.2210DUTERME ADRIEN26BEL1:16:541:16:315:22 11.21158687
60.2253NATALIS ALEXANDRE29BELRFCLRFCL1:17:021:16:485:23 11.17163683
61.1051FAGLAIN CHRISTOPHE38FRAESA59 CAF1:17:041:16:525:23 11.16166681WIGNEHIES
62.2320BACHELY GEOFFREY36BELJC BRAC1:17:121:17:055:24 11.13171676
63.2353EEMAN JULIEN36BEL1:18:501:18:035:28 10.99179654MONTIGNIES-SUR-SAMBRE
64.5458LABILLOY FLORENT37BELAC FRONTIÈRES1:18:231:18:055:28 10.99180658
65.2238CORDEWENER MATHIEU32BELAC FRON1:19:261:19:085:33 10.84190641
66.764SEVERINO THOMAS34BELBOUFFIOLS1:19:411:19:325:34 10.79194636GOUTROUX
67.2309DUTERME NICOLAS35BELART1:20:111:19:435:35 10.76198628
68.1098ERNOTTE YVERICK23BEL1:20:471:20:175:37 10.69202620CHIMAY
69.2225TREBOR WILLIAM39BELON THE1:20:341:20:235:38 10.68203622
70.2265MARCHAL CYRIL25BEL1:20:571:20:285:38 10.66205616
71.2447DUPONT NICOLAS31BEL1:22:251:21:425:43 10.50210598GRANDRIEU
72.5461LALOY PHILIPPE38BELACTEACTE1:22:011:21:485:44 10.49213600JEUMONT
73.2222DEWORTELAER SERGE27BEL1:22:211:21:595:44 10.47216595
74.2274ANTONIO ALEXANDRE34BEL1:23:241:22:585:49 10.34226579
75.1038AMANT BERTRAND35BELLA THURE1:23:171:23:005:49 10.34228579RANCE
76.2231DUBOIS MATHIEU33BELPOMPETT1:23:321:23:195:50 10.30233573
77.2254GERARD CORENTIN22BEL1:23:431:23:225:50 10.29234571
78.2318CLIP JEAN LOUIS36BEL1:23:471:23:325:51 10.27237568
79.5484DARDENNE VALENTIN23BEL1:23:541:23:335:51 10.27238567CHIMAY
80.5449GERARD GREGORY36BEL1:23:561:23:475:52 10.24241564MACON
81.2426LUNEAU LAURENT30FRA1:24:521:24:335:55 10.15249550CHIMAY
82.2243ROVER JEREMY28BEL1:24:541:24:395:56 10.14250550
83.2273COUPAIN PHILIPPE37BELJC HSH1:25:141:24:585:57 10.10252545
84.5412LOUETTE LAURENT35BEL1:25:051:24:595:57 10.10253546MONTIGNIES ST CHRIST
85.5468HENRIOULLE JÉRÔME23BEL1:27:261:27:206:07 9.83274510CHÂTELET
86.2337PAGE BENJAMIN39BELJACO1:28:561:28:286:12 9.70288488
87.1105GOURDIN CÉDRIC34BELGAGGAG1:29:321:29:136:15 9.62296477GEMBLOUX
88.5463TOSOLINI LUC29FRA1:29:471:29:236:16 9.60298474ECLAIBES
89.2292COGNAUX OLIVIER39BEL1:29:481:29:256:16 9.60299473
90.9835POUCET BERNARD39BELJTRRJTRR1:29:531:29:496:17 9.55305469
91.1039SIONCKE ARNAUD39FRA1:30:301:29:576:18 9.54307461LUZOIR
92.5451MARCHAL FRANÇOIS29BELBATSTHBATSTH1:30:301:30:036:18 9.53309460NAMOUSSART
93.1040BUHOT CYRIL37FRA1:30:581:30:256:20 9.49311455LANDOUZY LA COUR
94.5389NICOLAS JORDAN24BEL1:30:551:30:296:20 9.48312455PRESGAUX
95.2415DAMANET BENJAMIN37BEL1:30:441:30:376:21 9.47314455SARS-LA-BUISSIÈRE
96.2369LELOUP MATHIEU38BEL1:31:071:30:396:21 9.47316451LIGNY
97.1048DEHARBES VALENTIN23BEL1:31:241:30:546:22 9.44317447ANOR
98.1112PIMPERNET ALEXIS33FRA1:32:061:31:396:25 9.36326436EUVY
99.2227DIZANT GREGORY35BEL1:32:511:32:406:29 9.26339421
100.5465BOULENGER EDOUARD38FRA1:33:151:32:516:30 9.24341416AULNOYE-AYMERIES
101.2300FORTEMPS MATHIEU32BELTRAILER1:33:091:32:526:30 9.24342416
102.1054MONIN THOMAS26BEL1:33:571:33:286:33 9.18344408ETTERBEEK
103.2267HARDY FLORIAN24BELJACO1:33:591:33:356:33 9.17346407
104.2403DEVIGNE JEAN-LUC39FRA1:34:231:34:086:35 9.12350401REIMS
105.2469HANOTIEAU JUAN27BEL1:35:421:35:176:40 9.01362382MONTBLIART
106.2336HENRY RENAUD34BELJCCSJCCS1:35:511:35:236:41 9.00363380
107.1206WOUTERS MATHIEU23BELRONVAU1:36:001:35:256:41 8.99364378PERWEZ
108.2240BAILLIEU DIEGO20BEL1:38:451:37:556:51 8.76387341
109.5441MEESSEN NICOLAS38BEL1:40:301:39:557:00 8.59406315RIÈZES
110.5417LAVERDURE MARTIN22BELJACO1:40:311:39:577:00 8.58407314MOMIGNIES
111.2355DEKIMPE KOEN32BELLEEUWERIK1:40:561:40:107:01 8.57411308SINT-PIETERS-LEEUW
112.2477HONNORÉ GIL31BEL1:40:561:40:107:01 8.57412307FLORENNES
113.2473DROPSY BENJAMIN32BEL1:40:561:40:117:01 8.56413307VERGNIES
114.5470DELPLACE AXEL31BELB BÊTES DE COURSE1:41:521:41:317:06 8.45421295ATH
115.145GRANDMONT ANTONIN27BELARCHARCH1:43:171:42:457:12 8.35435274DINANT
116.807SCAUT PIERRE33BELJCHSHJC HSH1:43:171:42:457:12 8.35436274HAM-SUR-HEURE
117.1091PAULET MATTHIEU32FRA1:44:221:43:387:15 8.28445260BALAN
118.1089BINETEAU SIMON23FRA1:45:141:44:307:19 8.21451249CHEVEUGES
119.2316MANSU ROMAIN25BEL1:45:141:44:307:19 8.21452249
120.2458AGU ARNAUD27FRA1:47:311:44:527:20 8.18460226PARIS
121.2455PAURON MAXANDRE27FRA1:46:461:45:387:24 8.12466228SAVIGNY-SUR-ORGE
122.1005HALLET CLÉMENT30BELHABAY1:47:511:47:177:31 8.00481211MELLIER
123.5452POUCET HUGO22BELRUN'HEURE1:47:391:47:227:31 7.99483211CERFONAINE
124.2343HAMMAD AYMERIC37BEL1:49:011:48:197:35 7.92487198
125.2409GUILLAUME JULIEN26BELSHARKS1:49:471:49:277:40 7.84496187VIRELLE
126.2342PITON NICOLAS32BEL1:50:411:49:597:42 7.80500178
127.2370MASSINON CHARLES28BEL1:53:111:53:027:55 7.59522146COUVIN
128.2248BOYE VALENTIN26BEL1:56:451:56:458:10 7.35538110
129.5487ANTHONISSEN FELIX27BEL2:03:042:02:258:34 7.01550585070
130.2474RIVEZ NICOLAS37BELRUNNING STRATOS2:07:472:07:158:54 6.7455722SARS LA BUISSIERE
DSQ2224THIBAUT VINCENT37BELCCTA2:19:462:19:34
DNF: did not finish; DSQ: disqualified; Speed in km/h
Page: [1]